Regional Weather Roundup
Issued by NWS

Home | Current Version | Previous Version | Graphics & Text | Print | Product List | Glossary Off
Versions: 1 2 3 4 5 6 7 8 9 10 11 12 13 14 15 16 17 18 19 20 21 22 23 24 25 26 27 28 29 30 31 32 33 34 35 36 37 38 39 40 41 42 43 44 45 46 47 48 49 50

000
ASUS43 KTOP 020808
RWRKS

WEATHER ROUNDUP FOR KANSAS
NATIONAL WEATHER SERVICE GOODLAND KS
200 AM CST MON MAR 02 2015

NOTE:  "FAIR" INDICATES FEW OR NO CLOUDS BELOW 12,000 FEET WITH NO
SIGNIFICANT WEATHER AND/OR OBSTRUCTIONS TO VISIBILITY.

KSZ001>006-013>018-027>032-041>047-020900-
NORTHWEST KANSAS

CITY           SKY/WX    TMP DP  RH WIND       PRES   REMARKS
GOODLAND       CLOUDY    29  21  72 S8        30.30F
HAYS           CLOUDY    25  12  58 CALM      30.42F
HILL CITY      CLOUDY    30  21  69 SW3       30.41F
RUSSELL        PTCLDY    22  19  89 S6        30.42F
$$

KSZ061>065-074>080-084>089-020900-
SOUTHWEST KANSAS

CITY           SKY/WX    TMP DP  RH WIND       PRES   REMARKS
DODGE CITY     PTCLDY    23  18  81 S5        30.40F
ELKHART          N/A     23  18  81 S6          N/A
GARDEN CITY    CLOUDY    23  20  88 SE6       30.36F
GREAT BEND     PTCLDY    21  14  73 CALM      30.43F
LIBERAL        MOCLDY    25  19  80 S5        30.39S
PRATT          PTCLDY    23  21  93 N3        30.44F
$$

KSZ066>073-081>083-090>101-020900-
SOUTHEAST KANSAS

CITY           SKY/WX    TMP DP  RH WIND       PRES   REMARKS
CHANUTE        CLEAR     17  15  92 CALM      30.50S
COFFEYVILLE    PTCLDY    21  19  92 N5        30.51R
HUTCHINSON     PTCLDY    19  14  81 CALM      30.47F
MEDICINE LODGE   N/A     20  18  92 CALM      30.46S
NEWTON         CLEAR     25  16  68 NE3       30.48S
PARSONS        PTCLDY    18  16  92 CALM      30.51S
WICHITA INTL   MOCLDY    20  17  88 CALM      30.47F FOG
WICHITA JABRA  FAIR      21  18  88 N5        30.47F
WICHITA MCCONL PTCLDY    20  19  92 N6        30.47S
WINFIELD       PTCLDY    18  16  92 CALM      30.49S
$$

KSZ007>012-019>026-033>040-048>060-102>105-020900-
NORTHEAST KANSAS

CITY           SKY/WX    TMP DP  RH WIND       PRES   REMARKS
CONCORDIA      CLOUDY    30  23  75 CALM      30.45F
EMPORIA        PTCLDY    18  16  92 SW3       30.49R
LAWRENCE       PTCLDY    19  16  88 NW5       30.52S
MANHATTAN      MOCLDY    22  20  92 CALM      30.50S
MARYSVILLE     CLOUDY    30  23  74 CALM      30.48S
OLATHE IND     PTCLDY    20  17  88 CALM      30.50F
OLATHE EXE     PTCLDY    22  19  89 CALM      30.49S
SALINA         CLEAR     22  17  81 CALM      30.48F
TOPEKA BILLARD PTCLDY    22  18  85 CALM      30.52S
TOPEKA FORBES  PTCLDY    23  19  85 CALM      30.50R
$$


USA.gov is the U.S. government's official web portal to all federal, state and local government web resources and services.